When you browse on this site, cookies collect data to enhance your experience and personalize the content and advertising you see.
Visit our Privacy Policy to learn more. By continuing to use the site, you agree to this use of cookies and data.
  • In Denmark
  • List of Countries
  • For 7 days
  • Water Temperature
  • Weather Map
  • Weather Widgets
  • user-avatar
    Login

    Hourly Weather Plovdiv

    Today, 26 February, Wednesday

    Time Temperature Precipitation Wind Pressure Humidity
    00:00 +9°C° 0 mm 2 mps 733 mmHg 70%
    01:00 +9°C° 0 mm 2 mps 733 mmHg 72%
    02:00 +9°C° 0 mm 2 mps 733 mmHg 73%
    03:00 +8°C° 0 mm 2 mps 732 mmHg 74%
    04:00 +8°C° 0 mm 2 mps 732 mmHg 75%
    05:00 +8°C° 0 mm 2 mps 731 mmHg 76%
    06:00 +8°C° 0 mm 2 mps 731 mmHg 75%
    07:00 +8°C° 0 mm 2 mps 731 mmHg 74%
    08:00 +9°C° 0 mm 2 mps 730 mmHg 73%
    09:00 +12°C° 0 mm 2 mps 730 mmHg 66%
    10:00 +13°C° 0 mm 2 mps 730 mmHg 59%
    11:00 +15°C° 0 mm 1 mps 730 mmHg 52%
    12:00 +16°C° 0 mm 2 mps 729 mmHg 49%
    13:00 +17°C° 0 mm 2 mps 728 mmHg 46%
    14:00 +18°C° 0 mm 2 mps 728 mmHg 44%
    15:00 +17°C° 0 mm 2 mps 727 mmHg 48%
    16:00 +16°C° 0 mm 2 mps 727 mmHg 52%
    17:00 +16°C° 0 mm 1 mps 726 mmHg 56%
    18:00 +14°C° 0 mm 2 mps 726 mmHg 61%
    19:00 +13°C° 0 mm 2 mps 727 mmHg 65%
    20:00 +12°C° 0 mm 2 mps 727 mmHg 70%
    21:00 +12°C° 0 mm 2 mps 727 mmHg 71%
    22:00 +12°C° 0 mm 2 mps 727 mmHg 73%
    23:00 +10°C° 0 mm 3 mps 727 mmHg 75%

    Tomorrow, 27 February, Thursday

    Time Temperature Precipitation Wind Pressure Humidity
    00:00 +10°C° 0 mm 3 mps 727 mmHg 76%
    01:00 +10°C° 0 mm 3 mps 727 mmHg 77%
    02:00 +9°C° 0 mm 3 mps 727 mmHg 78%
    03:00 +9°C° 0 mm 3 mps 727 mmHg 79%
    04:00 +9°C° 0 mm 2 mps 726 mmHg 79%
    05:00 +8°C° 0 mm 2 mps 726 mmHg 80%
    06:00 +8°C° 0 mm 2 mps 726 mmHg 78%
    07:00 +9°C° 0 mm 3 mps 726 mmHg 76%
    08:00 +9°C° 0 mm 3 mps 726 mmHg 74%
    09:00 +9°C° 0.2 mm 3 mps 727 mmHg 71%
    10:00 +9°C° 0.2 mm 3 mps 727 mmHg 68%
    11:00 +8°C° 0.2 mm 4 mps 728 mmHg 66%
    12:00 +9°C° 0 mm 5 mps 728 mmHg 59%
    13:00 +10°C° 0 mm 6 mps 729 mmHg 52%
    14:00 +11°C° 0 mm 7 mps 729 mmHg 45%
    15:00 +9°C° 0.2 mm 6 mps 729 mmHg 50%
    16:00 +8°C° 0.2 mm 6 mps 729 mmHg 55%
    17:00 +7°C° 0.2 mm 5 mps 729 mmHg 60%
    18:00 +6°C° 0.1 mm 5 mps 730 mmHg 63%
    19:00 +4°C° 0.1 mm 4 mps 731 mmHg 65%
    20:00 +3°C° 0.1 mm 4 mps 732 mmHg 68%
    21:00 +3°C° 0 mm 3 mps 732 mmHg 67%
    22:00 +3°C° 0 mm 3 mps 733 mmHg 66%
    23:00 +2°C° 0 mm 3 mps 734 mmHg 64%

    Day after tomorrow, 28 February, Friday

    Time Temperature Precipitation Wind Pressure Humidity
    00:00 +3°C° 0 mm 2 mps 734 mmHg 63%
    01:00 +3°C° 0 mm 2 mps 734 mmHg 62%
    02:00 +3°C° 0 mm 2 mps 735 mmHg 60%
    03:00 +2°C° 0 mm 2 mps 735 mmHg 58%
    04:00 +2°C° 0 mm 2 mps 735 mmHg 56%
    05:00 +2°C° 0 mm 2 mps 735 mmHg 54%
    06:00 +3°C° 0 mm 2 mps 735 mmHg 52%
    07:00 +4°C° 0 mm 1 mps 735 mmHg 50%
    08:00 +5°C° 0 mm 1 mps 735 mmHg 48%
    09:00 +7°C° 0 mm 1 mps 735 mmHg 43%
    10:00 +8°C° 0 mm 1 mps 735 mmHg 38%
    11:00 +10°C° 0 mm 1 mps 735 mmHg 34%
    12:00 +11°C° 0 mm 1 mps 734 mmHg 34%
    13:00 +12°C° 0 mm 2 mps 734 mmHg 35%
    14:00 +12°C° 0 mm 2 mps 733 mmHg 36%
    15:00 +10°C° 0.1 mm 2 mps 734 mmHg 43%
    16:00 +10°C° 0.1 mm 3 mps 734 mmHg 51%
    17:00 +8°C° 0.1 mm 4 mps 734 mmHg 58%
    18:00 +7°C° 0.5 mm 4 mps 735 mmHg 62%
    19:00 +7°C° 0.5 mm 3 mps 736 mmHg 65%
    20:00 +5°C° 0.5 mm 3 mps 737 mmHg 69%
    21:00 +4°C° 0 mm 3 mps 737 mmHg 67%
    22:00 +4°C° 0 mm 2 mps 738 mmHg 65%
    23:00 +4°C° 0 mm 2 mps 738 mmHg 63%

    29 February, Saturday

    Time Temperature Precipitation Wind Pressure Humidity
    00:00 +3°C° 0 mm 2 mps 738 mmHg 63%
    01:00 +2°C° 0 mm 3 mps 738 mmHg 63%
    02:00 +2°C° 0 mm 3 mps 739 mmHg 63%
    03:00 +1°C° 0 mm 3 mps 739 mmHg 61%
    04:00 +1°C° 0 mm 3 mps 739 mmHg 60%
    05:00 +1°C° 0 mm 3 mps 739 mmHg 59%
    06:00 +3°C° 0 mm 2 mps 739 mmHg 56%
    07:00 +3°C° 0 mm 2 mps 740 mmHg 54%
    08:00 +3°C° 0 mm 2 mps 740 mmHg 51%
    09:00 +6°C° 0 mm 2 mps 740 mmHg 44%
    10:00 +8°C° 0 mm 2 mps 740 mmHg 36%
    11:00 +10°C° 0 mm 2 mps 740 mmHg 29%
    12:00 +12°C° 0 mm 2 mps 740 mmHg 28%
    13:00 +12°C° 0 mm 2 mps 739 mmHg 28%
    14:00 +13°C° 0 mm 2 mps 739 mmHg 28%
    15:00 +13°C° 0 mm 1 mps 739 mmHg 31%
    16:00 +12°C° 0 mm 1 mps 738 mmHg 35%
    17:00 +12°C° 0 mm 1 mps 738 mmHg 38%
    18:00 +11°C° 0 mm 1 mps 738 mmHg 42%
    19:00 +9°C° 0 mm 1 mps 738 mmHg 46%
    20:00 +6°C° 0 mm 2 mps 739 mmHg 50%
    21:00 +6°C° 0 mm 2 mps 739 mmHg 50%
    22:00 +6°C° 0 mm 2 mps 739 mmHg 49%
    23:00 +6°C° 0 mm 2 mps 739 mmHg 49%

    1 March, Sunday

    Time Temperature Precipitation Wind Pressure Humidity
    00:00 +6°C° 0 mm 2 mps 738 mmHg 52%
    01:00 +7°C° 0 mm 1 mps 738 mmHg 54%
    02:00 +7°C° 0 mm 1 mps 738 mmHg 57%
    03:00 +7°C° 0 mm 1 mps 738 mmHg 59%
    04:00 +7°C° 0 mm 1 mps 737 mmHg 62%
    05:00 +6°C° 0 mm 1 mps 737 mmHg 65%
    06:00 +7°C° 0 mm 1 mps 737 mmHg 66%
    07:00 +7°C° 0 mm 1 mps 737 mmHg 67%
    08:00 +7°C° 0 mm 1 mps 737 mmHg 67%
    09:00 +9°C° 0 mm 1 mps 737 mmHg 62%
    10:00 +12°C° 0 mm 1 mps 737 mmHg 56%
    11:00 +14°C° 0 mm 1 mps 737 mmHg 50%
    12:00 +14°C° 0 mm 1 mps 736 mmHg 50%
    13:00 +15°C° 0 mm 1 mps 736 mmHg 49%
    14:00 +16°C° 0 mm 2 mps 735 mmHg 48%
    15:00 +16°C° 0 mm 1 mps 735 mmHg 50%
    16:00 +15°C° 0 mm 1 mps 734 mmHg 53%
    17:00 +15°C° 0 mm 1 mps 734 mmHg 55%
    18:00 +14°C° 0 mm 1 mps 734 mmHg 60%
    19:00 +12°C° 0 mm 1 mps 734 mmHg 66%
    20:00 +11°C° 0 mm 1 mps 734 mmHg 71%
    21:00 +10°C° 0 mm 2 mps 734 mmHg 71%
    22:00 +10°C° 0 mm 2 mps 734 mmHg 71%
    23:00 +10°C° 0 mm 2 mps 734 mmHg 71%

    2 March, Monday

    Time Temperature Precipitation Wind Pressure Humidity
    00:00 +10°C° 0 mm 2 mps 734 mmHg 73%
    01:00 +9°C° 0 mm 2 mps 734 mmHg 74%
    02:00 +10°C° 0 mm 1 mps 734 mmHg 76%
    03:00 +9°C° 0 mm 2 mps 734 mmHg 77%
    04:00 +9°C° 0 mm 2 mps 733 mmHg 78%
    05:00 +8°C° 0 mm 2 mps 733 mmHg 78%
    06:00 +9°C° 0 mm 2 mps 733 mmHg 77%
    07:00 +10°C° 0 mm 1 mps 733 mmHg 76%
    08:00 +11°C° 0 mm 1 mps 733 mmHg 74%
    09:00 +12°C° 0 mm 1 mps 733 mmHg 68%
    10:00 +14°C° 0 mm 1 mps 733 mmHg 62%
    11:00 +16°C° 0 mm 1 mps 733 mmHg 56%
    12:00 +16°C° 0.2 mm 1 mps 733 mmHg 58%
    13:00 +16°C° 0.2 mm 1 mps 733 mmHg 61%
    14:00 +16°C° 0.2 mm 2 mps 733 mmHg 63%
    15:00 +16°C° 0 mm 1 mps 732 mmHg 63%
    16:00 +16°C° 0 mm 1 mps 732 mmHg 63%
    17:00 +16°C° 0 mm 1 mps 732 mmHg 63%
    18:00 +15°C° 0 mm 1 mps 732 mmHg 68%
    19:00 +13°C° 0 mm 1 mps 733 mmHg 73%
    20:00 +12°C° 0 mm 2 mps 733 mmHg 78%
    21:00 +12°C° 0 mm 2 mps 733 mmHg 78%
    22:00 +10°C° 0 mm 2 mps 733 mmHg 78%
    23:00 +10°C° 0 mm 2 mps 733 mmHg 79%
    Show more